User: anonymous   Login
Location: *
(51.1248°S, 108.4023°W)
Time: 02:27:03
(UTC+00:00)
Language:

Cosmos 1656 Rocket - Orbit

View from above orbital plane
View from above orbital plane
View from above satellite
View from above satellite

Ground track
Ground track

The orbit data is extracted from the following two-line orbital elements,

1 15772U 85042D   21269.40339719 -.00000094  00000-0 -21263-4 0  9990
2 15772  71.1063 279.2240 0033772 136.8485 324.3389 14.21300939883413
Epoch (UTC): 26 September 2021 09:40:53
Eccentricity: 0.0033772
inclination: 71.1063°
perigee height: 796 km
apogee height: 845 km
right ascension of ascending node: 279.2240°
argument of perigee: 136.8485°
revolutions per day: 14.21300939
mean anomaly at epoch: 324.3389°
orbit number at epoch: 88341

The dashed part of the orbit path shows where the satellite is in the earth's shadow,  

DLR